Simultaneous Nadir Overpasses (SNOs) Predictions

Prediction of SNOs between AQUA and NOAA-19 Satellite Orbit:

Table of predicted SNOs for the next 14.0 days since TLE Epoch: 10/18/2013
Index Date (AQUA) Time (AQUA) Lat,Lon (AQUA) SZA (AQUA ) Date (NOAA-19) Time (NOAA-19) Lat,Lon (NOAA-19) SZA (NOAA-19 ) Distance(km) Time Diff (sec)
1 10/20/2013 00:45:11 -67.96, -8.18 101.68 10/20/2013 00:44:02 -67.96, -8.15 101.69 1.13 69
2 10/20/2013 01:33:21 63.53, 163.79 74.21 10/20/2013 01:33:45 63.52, 163.83 74.22 2.04 24
3 10/22/2013 05:29:32 -68.40, -79.76 100.48 10/22/2013 05:28:23 -68.40, -79.77 100.48 0.78 69
4 10/22/2013 06:17:38 63.75, 92.55 75.20 10/22/2013 06:18:01 63.74, 92.59 75.21 2.36 23
5 10/24/2013 10:13:47 -68.53,-150.97 99.58 10/24/2013 10:12:38 -68.53,-150.98 99.59 0.72 69
6 10/24/2013 11:02:04 64.52, 20.83 76.68 10/24/2013 11:02:27 64.52, 20.83 76.69 0.32 23
7 10/26/2013 14:57:56 -68.36, 138.19 98.99 10/26/2013 14:56:47 -68.35, 138.22 99.00 1.32 69
8 10/26/2013 15:46:22 64.86, -50.52 77.75 10/26/2013 15:46:45 64.86, -50.54 77.76 1.04 23
9 10/28/2013 19:42:13 -68.66, 66.78 97.97 10/28/2013 19:41:05 -68.65, 66.78 97.98 0.35 68
10 10/28/2013 20:30:33 64.83,-121.54 78.46 10/28/2013 20:30:56 64.83,-121.53 78.47 0.26 23
11 10/31/2013 00:26:23 -68.59, -4.19 97.30 10/31/2013 00:25:16 -68.59, -4.16 97.32 1.29 67




NCC Satellite Simultaneous Nadir Overpasses (SNOs) Prediction Service
